Regional Weather Roundup
Issued by NWS Mobile, AL

Home | Current Version | Previous Version | Text Only | Print | Product List | Glossary On
Versions: 1 2 3 4 5 6 7 8 9 10 11 12 13 14 15 16 17 18 19 20 21 22 23 24 25 26 27
000
ASUS44 KMOB 290912
RWRMOB
REGIONAL WEATHER ROUNDUP
NATIONAL WEATHER SERVICE MOBILE AL
400 AM CDT SUN MAY 29 2016

NOTE: "FAIR" INDICATES FEW OR NO CLOUDS BELOW 12,000 FEET WITH NO
      SIGNIFICANT WEATHER AND/OR OBSTRUCTIONS TO VISIBILITY.

  * THESE STATIONS ARE PART OF THE UNIVERSITY OF SOUTH ALABAMA
    MESONET AND ARE NOT UNDER NWS OR FAA QUALITY CONTROL.

ALZ061>064-291000-
COASTAL ALABAMA

CITY           SKY/WX    TMP DP  RH WIND       PRES   REMARKS
MOBILE REG APT PTCLDY    69  68  96 CALM      30.06S
BROOKLEY FIELD CLEAR     70  68  93 CALM      30.06S
USA CAMPUS*    NOT AVBL
DOG RIVER*     NOT AVBL


CITY           SKY/WX    TMP DP  RH WIND       PRES   REMARKS
MOUNT VERNON*  NOT AVBL
SARALAND*      NOT AVBL
BAY MINETTE*   NOT AVBL
LOXLEY*        NOT AVBL
ROBERTSDALE*   NOT AVBL
FAIRHOPE*      NOT AVBL
ELBERTA*       NOT AVBL
FOLEY*         NOT AVBL
GRAND BAY*     NOT AVBL
DAUPHIN ISLND* NOT AVBL
BON SCOUR NWR* NOT AVBL
GULF SHORES    CLEAR     66  66 100 CALM      30.04F

$$

ALZ051>060-291000-
INTERIOR SOUTHWEST AND SOUTH CENTRAL ALABAMA

CITY           SKY/WX    TMP DP  RH WIND       PRES   REMARKS
GREENVILLE     CLEAR     69  66  90 CALM      30.07S
EVERGREEN      CLEAR     66  64  93 CALM      30.07S
CASTLEBERRY*   NOT AVBL
ATMORE*        NOT AVBL
DIXIE*         NOT AVBL
ANDALUSIA/OPP  PTCLDY    74  68  81 NW3       30.06S
ANDALUSIA*     NOT AVBL
FLORALA APT    PTCLDY    69  66  90 CALM      30.07S
FLORALA*       NOT AVBL

$$

FLZ001>006-291000-
WESTERN FLORIDA PANHANDLE

CITY           SKY/WX    TMP DP  RH WIND       PRES   REMARKS
PENSACOLA      CLEAR     71  67  87 N5        30.04F
NAS PENSACOLA  NOT AVBL
MILTON         CLEAR     67  67 100 NW3       30.05F
WHTNG S FIELD  NOT AVBL


CITY           SKY/WX    TMP DP  RH WIND       PRES   REMARKS
WALNUT HILL*   NOT AVBL
JAY*           NOT AVBL
DUKE FIELD     CLEAR     66  64  92 NW3       30.04S
CRESTVIEW      CLEAR     64  62  93 CALM      30.07R
VALPARAISO     PTCLDY    69  65  87 N3        30.04S
DESTIN         CLEAR     76  70  82 NW3       30.04S

$$

MSZ076-079-291000-
INTERIOR SOUTHEAST MISSISSIPPI

CITY           SKY/WX    TMP DP  RH WIND       PRES   REMARKS
LEAKESVILLE*   NOT AVBL
AGRICOLA*      NOT AVBL

$$

MARINE OBSERVATIONS

STATION/POSITION TIME  TEMP    WIND        PRES    WAVE
                       AIR SEA DIR/SP/G            HT/PER
                 (UTC) (F)     (DEG/KT/KT) (MB)    (FT/S)
PASCAGOULA       0800   73      80/  3/  3 1016.7F
PETIT BOIS ISLND 0800   76      30/  6/  7 1017.6F
GRAND BAY        0700   71     360/  5     1019.0F
KATRINA CUT      0800   76     350/  6     1018.0F
CEDAR POINT      0800   73     360/  6     1017.3S
E DAUPHIN ISLAND 0800   77     350/  7/  7 1017.1F
MIDDLE BAY LIGHT 0800   77     350/  9     1017.3F
USCG MOBILE BAY  0800   72 80  350/  3/  4 1018.0F
STATE DOCKS      0800   74 81              1017.4F
MEAHER PARK      0800   72      20/  3     1017.3F
WEEKS BAY        0700   69                   N/A
FORT MORGAN      0800   77      20/  5/  6 1016.8F
12 S ORANGE BCH  0850   78 80     CALM     1016.7R   2/ 6
PENSACOLA BAY    0800      81  350/  3/  5 1017.7F
64 S DAUPHIN ISL 0800   78 79  120/  2/  4 1016.8F

$$

SELECTED LOCATIONS ACROSS THE REGION

CITY           SKY/WX    TMP DP  RH WIND       PRES   REMARKS
NEW ORLEANS    PTCLDY    70  68  93 CALM      30.04R
GULFPORT       CLEAR     69  67  93 N3        30.04R
PASCAGOULA AP  FOG       62  62 100 CALM      30.05R VSB 1/4
PASCAGOULA*    NOT AVBL
HATTIESBURG    CLEAR     64  63  96 CALM      30.07R
LAUREL         CLEAR     63  59  88 CALM      30.08R
MERIDIAN       CLEAR     66  62  87 CALM      30.07R
JACKSON        CLEAR     67  65  93 CALM      30.06R
MONTGOMERY     CLOUDY    73  68  84 N5        30.07S
TROY           CLOUDY    70  67  90 CALM      30.07S
KINSTON*       NOT AVBL
GENEVA*        NOT AVBL
ASHFORD*       NOT AVBL
DOTHAN         CLEAR     70  66  87 N5        30.08S
PANAMA CITY    CLEAR     68  66  93 NW6       30.04R

$$





USA.gov is the U.S. government's official web portal to all federal, state and local government web resources and services.